This demonstration page uses our WeatherBlox Daily Observations layout. Learn more.

36.17497, -115.13722

Hourly Observations for October 4, 2018

Temp ( °F °C ) Dew Point ( °F °C ) Humidity (%) Winds ( mph kmh ) Pressure ( in mb ) Visibility ( mi km ) Precip ( " mm )
12:30 am 00:30 Mostly Cloudy with Light Rain 67 19.4 55 12.8 66 66 SW 12 19 29.77 1008 2.5 4.02336 0.13 3.302
12:37 am 00:37 Cloudy with Light Rain 65 18.3 55 12.8 70 70 SW 14 22 29.83 1010 10 16.09344 0.13 3.302
12:53 am 00:53 Cloudy with Light Rain 66 18.9 55 12.8 68 68 WSW 14 22 29.85 1011 10 16.09344 0.14 3.556
1:53 am 01:53 Cloudy 66 18.9 55 12.8 68 68 SW 6 9 29.85 1011 10 16.09344 0.02 0.508
2:53 am 02:53 Clear 66 18.9 55 12.8 68 68 ENE 8 13 29.85 1011 10 16.09344 0 0
3:50 am 03:50 Clear with Nearby Thunderstorms 64 18 57 14 78 78 E 5 7 29.83 1010 10 16.09344 0 0
3:53 am 03:53 Clear with Nearby Thunderstorms 65 18.3 57 13.9 76 76 E 5 7 29.85 1011 10 16.09344 0 0
4:21 am 04:21 Clear 65 18.3 57 13.9 76 76 Calm 29.83 1010 10 16.09344 0 0
4:36 am 04:36 Clear with Nearby Thunderstorms 65 18.3 57 13.9 76 76 NNW 6 9 29.83 1010 10 16.09344 0 0
4:50 am 04:50 Mostly Clear 64 18 55 13 73 73 Calm 29.83 1010 10 16.09344 0 0
4:53 am 04:53 Partly Cloudy 65 18.3 56 13.3 73 73 Calm 29.85 1011 10 16.09344 0 0
5:53 am 05:53 Clear 63 17.2 57 13.9 81 81 E 9 15 29.88 1012 10 16.09344 0 0
6:53 am 06:53 Sunny 63 17.2 55 12.8 76 76 E 10 17 29.91 1013 10 16.09344 0 0
7:53 am 07:53 Sunny 65 18.3 54 12.2 68 68 E 6 9 29.94 1014 10 16.09344 0 0
8:53 am 08:53 Sunny 67 19.4 54 12.2 63 63 SE 6 9 29.97 1015 10 16.09344 0 0
9:53 am 09:53 Sunny 69 20.6 55 12.8 61 61 ESE 6 9 29.97 1015 10 16.09344 0 0
10:53 am 10:53 Sunny 71 21.7 54 12.2 55 55 SSW 8 13 29.94 1014 10 16.09344 0 0
11:53 am 11:53 Sunny 74 23.3 50 10 43 43 S 5 7 29.91 1013 10 16.09344 0 0
12:53 pm 12:53 Sunny 77 25 46 7.8 33 33 SSW 13 20 29.91 1013 10 16.09344 0 0
1:53 pm 13:53 Mostly Sunny 77 25 44 6.7 31 31 SSW 6 9 29.88 1012 10 16.09344 0 0
2:53 pm 14:53 Sunny 79 26.1 43 6.1 28 28 SSW 9 15 29.85 1011 10 16.09344 0 0
3:53 pm 15:53 Sunny 80 26.7 42 5.6 26 26 S 7 11 29.83 1010 10 16.09344 0 0
4:53 pm 16:53 Sunny 80 26.7 41 5 25 25 S 14 22 29.83 1010 10 16.09344 0 0
5:53 pm 17:53 Sunny 79 26.1 40 4.4 25 25 SSW 14 22 29.83 1010 10 16.09344 0 0
6:53 pm 18:53 Clear 77 25 39 3.9 26 26 SSW 9 15 29.83 1010 10 16.09344 0 0
7:53 pm 19:53 Clear 76 24.4 40 4.4 27 27 SW 14 22 29.83 1010 10 16.09344 0 0
8:53 pm 20:53 Clear 75 23.9 42 5.6 31 31 SW 13 20 29.83 1010 10 16.09344 0 0
9:53 pm 21:53 Clear 73 22.8 43 6.1 34 34 SSW 12 19 29.85 1011 10 16.09344 0 0
10:53 pm 22:53 Clear 72 22.2 43 6.1 35 35 SSW 12 19 29.83 1010 10 16.09344 0 0
11:53 pm 23:53 Clear 71 21.7 42 5.6 35 35 SW 9 15 29.85 1011 10 16.09344 0 0

Powered by AerisWeather